ROMMA est une association bénévole à but non lucratif. Votre soutien est indispensable : ADHERER à ROMMA ou FAIRE un DON

Chambon - (38, Isère)

Oisans (2460 m)   Longitude: 06° 10' 42" E   Latitude: 45° 01' 32" N Station partenaire n°803
 

Détail journalier du     <<     >>

Température Humidité Vent Dir Rafale Dir. rafale Neige 1 Neige 2
Heure (°C) (%) (km/h) (km/h) (cm) (cm)
01:00 -1.89811NNE25NNE03
02:00 -2.4977NNE27NE03
03:00 -0.33315NE44NE03
04:00 -0.72819NE42NE03
05:00 -1.23218NE34NE04
06:00 2.01420NE44NE04
07:00 2.31221NE45ENE04
08:00 1.91612NE41ENE04
09:00 1.91818NE40NE03
10:00 2.91927NE39NE03
11:00 3.82123NE36NE04
12:00 5.12416NE32NE03
13:00 5.62415NE28NE04
14:00 5.42613NE25NE04
15:00 5.9317NNE17NE04
16:00 5.2259NNE20NNE04
17:00 5.43110NNE19NNE04
18:00 5.7266NNE12NNE03
19:00 3.8364NNE10NNE04
20:00 3.8327NNE13NE04
21:00 4.22014NNE31NE04
22:00 4.5228NE33NE03
23:00 4.62016NE34NE03
minuit 4.22318NNE32NE03

Graphique du 03-10-2019

 

Serveur OMMA